Date,TemperatureHighF,TemperatureAvgF,TemperatureLowF,DewpointHighF,DewpointAvgF,DewpointLowF,HumidityHigh,HumidityAvg,HumidityLow,PressureMaxIn,PressureMinIn,WindSpeedMaxMPH,WindSpeedAvgMPH,GustSpeedMaxMPH,PrecipitationSumIn
2013-7-13,106,98,87,62,61,58,42,30,24,29.12,29.00,4,0,6,0.00
2013-7-14,106,86,75,69,64,58,78,51,31,29.15,29.06,5,1,8,0.00
2013-7-15,75,72,68,74,70,66,98,94,79,29.24,29.09,4,0,6,2.21
2013-7-16,92,79,73,77,73,67,96,83,50,29.36,29.21,7,1,9,0.03
2013-7-17,93,77,72,77,72,70,97,86,52,29.39,29.30,13,1,19,0.79
2013-7-18,94,82,72,78,71,66,97,73,43,29.42,29.18,6,1,12,0.00
2013-7-19,99,84,71,76,69,63,95,66,35,29.30,29.09,8,1,10,0.00
2013-7-20,98,85,73,74,70,65,92,64,38,29.24,29.03,8,2,10,0.00
2013-7-21,99,82,74,76,73,69,96,77,39,29.15,29.06,11,2,15,1.47
2013-7-22,97,86,78,77,73,66,94,68,41,29.21,29.06,8,3,13,0.00
2013-7-23,99,88,79,76,71,64,84,60,36,29.21,29.06,7,3,13,0.00
2013-7-24,100,87,77,78,74,69,88,67,43,29.21,29.09,6,2,8,0.00
2013-7-25,102,88,77,77,72,65,87,61,37,29.24,29.12,6,1,12,0.00
2013-7-26,104,89,77,75,70,66,90,58,36,29.24,29.06,6,2,8,0.48
2013-7-27,94,82,76,78,72,66,95,74,45,29.21,29.09,5,1,8,0.00
2013-7-28,98,83,69,79,72,67,94,71,46,29.18,29.00,6,2,10,0.00
2013-7-29,99,88,79,76,70,62,86,60,32,29.21,29.12,9,4,13,0.00
2013-7-30,100,88,77,76,70,62,84,58,31,29.30,29.12,7,3,13,0.00
2013-7-31,107,90,76,74,68,64,80,53,27,29.33,29.12,5,1,6,0.00
2013-8-1,106,89,75,77,70,66,85,56,31,29.24,29.06,4,1,6,0.00
2013-8-2,103,90,76,71,66,61,72,49,29,29.18,29.06,6,2,10,0.00
2013-8-3,102,89,78,74,69,63,83,54,32,29.24,29.12,6,2,13,0.00
2013-8-4,99,89,78,76,71,66,84,58,38,29.30,29.12,8,3,10,0.00
2013-8-5,104,90,77,73,68,61,78,51,28,29.27,29.06,7,3,10,0.00
2013-8-6,104,91,78,76,69,61,80,53,28,29.18,29.00,7,3,10,0.00
2013-8-7,108,92,78,76,70,59,86,53,29,29.12,28.94,4,4,4,0.00
2013-8-8,104,91,77,75,68,59,84,52,25,29.12,28.97,6,3,10,0.00
2013-8-9,104,90,76,73,65,55,85,50,25,29.18,29.06,5,2,7,0.00
2013-8-10,108,90,75,75,68,57,81,53,28,29.27,29.12,0,0,0,0.00
2013-8-11,104,88,75,76,70,65,83,59,34,29.33,29.15,0,0,0,0.00
2013-8-12,103,88,76,74,69,63,88,58,35,29.30,29.12,0,0,0,0.00
2013-8-13,108,91,77,72,67,61,78,48,26,29.27,29.06,8,2,11,0.00
2013-8-14,108,87,75,76,70,60,95,62,29,29.24,29.09,6,2,8,0.72
2013-8-15,95,79,71,79,74,69,97,85,50,29.27,29.12,5,1,10,0.11
2013-8-16,95,79,70,75,69,62,98,77,38,29.33,29.12,6,1,9,0.00
2013-8-17,99,82,69,75,66,58,94,63,31,29.30,29.12,5,1,10,0.00
2013-8-18,99,81,66,70,63,58,89,59,31,29.30,29.18,4,1,7,0.00
2013-8-19,101,83,68,72,64,60,88,58,31,29.27,29.12,6,1,8,0.00
2013-8-20,101,84,68,70,64,58,86,55,28,29.27,29.12,7,2,10,0.00
2013-8-21,101,84,73,75,70,65,88,66,37,29.33,29.12,8,2,14,0.00
2013-8-22,103,94,83,78,69,65,79,47,35,29.33,29.12,6,2,8,0.00
2013-8-23,104,88,75,76,69,63,89,58,30,29.27,29.09,6,2,10,0.00
2013-8-24,106,88,74,75,68,62,80,55,31,29.27,29.12,7,1,10,0.00
2013-8-25,107,88,74,76,70,65,88,59,30,29.33,29.21,6,2,11,0.00
2013-8-26,96,84,76,75,71,66,87,68,40,29.36,29.21,8,3,13,0.00
2013-8-27,87,79,75,80,72,67,95,81,58,29.36,29.21,8,3,11,0.79
2013-8-28,100,84,72,78,70,64,96,68,37,29.33,29.18,6,1,10,0.00
2013-8-29,107,87,72,76,68,61,91,60,29,29.33,29.12,4,1,6,0.00
2013-8-30,104,92,77,69,65,61,73,44,27,29.21,29.06,4,0,4,0.00
2013-8-31,110,90,74,74,67,63,82,51,27,29.18,29.00,5,1,8,0.00
2013-9-1,108,90,76,76,68,63,79,53,29,29.12,29.00,5,1,7,0.00
2013-9-2,107,90,78,76,69,64,76,53,29,29.21,29.03,5,1,7,0.00
2013-9-3,106,87,72,75,68,63,86,57,27,29.21,29.06,6,1,12,0.00
2013-9-4,102,86,74,80,70,64,95,63,33,29.30,29.12,9,2,16,0.21
2013-9-5,103,88,76,76,70,64,86,60,34,29.36,29.18,8,2,12,0.00
2013-9-6,104,87,73,78,69,64,90,60,32,29.33,29.12,6,2,9,0.00
2013-9-7,103,85,72,78,70,65,90,64,32,29.27,29.09,12,2,17,0.00
2013-9-8,100,84,72,77,71,65,93,69,36,29.21,29.06,7,2,10,0.00
2013-9-9,98,81,72,75,70,65,92,73,40,29.24,29.09,12,2,21,0.00
2013-9-10,94,81,73,76,71,66,94,74,45,29.30,29.15,10,3,15,0.00
2013-9-11,99,85,75,78,69,59,90,63,30,29.36,29.18,6,2,9,0.00
2013-9-12,102,85,70,76,66,59,89,58,28,29.30,29.12,5,1,8,0.00
2013-9-13,106,85,71,72,66,60,83,59,27,29.21,29.03,6,1,8,0.00
2013-9-14,99,88,83,70,66,60,64,50,28,29.15,29.03,8,2,13,0.00
2013-9-15,96,85,74,75,69,64,87,61,39,29.24,29.12,6,2,9,0.00
2013-9-16,100,82,73,77,72,66,94,73,38,29.30,29.15,7,1,11,0.17
2013-9-17,95,82,74,79,72,66,96,75,46,29.30,29.12,7,1,11,0.00
2013-9-18,97,84,72,77,69,62,94,65,35,29.24,29.06,7,2,10,0.00
2013-9-19,94,81,76,80,74,68,93,80,47,29.18,29.00,9,1,12,0.04
2013-9-20,79,75,70,77,73,69,98,95,92,29.12,29.00,4,1,6,1.63
2013-9-21,92,76,63,69,61,49,97,66,30,29.18,29.06,4,1,7,0.00
2013-9-22,93,72,55,62,54,47,93,58,28,29.15,29.00,5,1,8,0.00
2013-9-23,95,75,56,63,56,53,91,59,27,29.09,28.97,5,1,7,0.00
2013-9-24,103,79,60,69,60,56,88,59,27,29.15,29.03,4,1,6,0.00
2013-9-25,101,81,64,71,63,56,90,58,31,29.12,28.94,6,1,9,0.00
2013-9-26,98,82,65,72,60,55,80,51,27,29.09,29.00,7,2,10,0.00
2013-9-27,91,81,74,78,74,70,92,80,58,29.12,29.00,11,3,14,0.00
2013-9-28,93,82,71,79,74,67,90,79,57,29.24,29.06,6,2,13,0.04
2013-9-29,84,70,64,68,64,59,93,80,48,29.33,29.12,3,1,5,0.00
2013-9-30,95,74,56,70,59,54,97,65,33,29.18,29.00,5,1,9,0.00
2013-10-1,95,79,63,78,66,58,95,68,39,29.12,29.00,6,2,11,0.00
2013-10-2,96,83,75,77,71,64,93,70,41,29.15,29.03,7,3,11,0.00
2013-10-3,96,84,75,74,70,64,91,65,39,29.15,29.00,8,3,13,0.00
2013-10-4,96,83,75,73,69,64,85,65,39,29.12,29.00,9,3,14,0.00
2013-10-5,97,78,65,75,62,41,88,60,36,29.33,29.06,6,2,10,0.00
2013-10-6,90,77,55,55,37,-10,49,27,3,29.39,29.24,4,1,8,0.00
2013-10-7,94,68,47,53,44,36,77,46,17,29.39,29.24,4,1,7,0.00
2013-10-8,93,71,49,61,48,42,82,50,25,29.33,29.15,6,2,10,0.00
2013-10-9,89,72,53,65,54,46,88,56,33,29.30,29.12,7,2,15,0.00
2013-10-10,89,76,65,68,63,60,93,67,41,29.24,29.06,8,3,13,0.00
2013-10-11,91,80,73,74,70,65,88,73,48,29.15,29.00,8,2,10,0.00
2013-10-12,96,83,74,79,72,67,95,73,42,29.21,29.09,7,2,9,0.04
2013-10-13,75,71,67,72,69,66,98,95,87,29.42,29.21,8,2,12,1.19
2013-10-14,83,76,71,76,72,70,98,90,66,29.33,29.12,6,2,8,0.10
2013-10-15,81,72,58,74,67,54,92,84,68,29.27,29.09,5,1,9,0.00
2013-10-16,63,58,53,60,56,53,98,95,89,29.36,29.21,3,0,6,1.27
2013-10-17,79,65,50,61,52,46,97,67,38,29.39,29.18,4,1,6,0.00
2013-10-18,72,66,58,64,58,50,88,78,69,29.27,29.09,5,2,8,0.00
2013-10-19,75,60,47,53,44,37,84,59,33,29.47,29.27,5,1,8,0.00
2013-10-20,78,61,43,54,47,39,95,63,38,29.33,29.12,1,0,2,0.00
2013-10-21,85,69,61,69,59,52,91,71,54,29.33,29.12,0,0,0,0.00
2013-10-22,85,67,51,54,47,41,81,54,27,29.42,29.30,0,0,0,0.00
2013-10-23,84,80,63,47,45,42,47,30,26,29.36,29.30,0,0,0,0.00
2013-10-24,82,75,65,49,48,45,55,40,30,29.42,29.36,3,1,4,0.00
2013-10-25,78,76,65,60,57,48,55,51,48,29.44,29.42,5,3,8,0.00
2013-10-27,77,68,65,65,62,59,94,84,53,29.42,29.27,2,1,4,0.00
2013-10-28,81,76,69,69,67,65,96,75,62,29.30,29.18,6,3,9,0.00
2013-10-29,82,80,75,69,68,67,80,66,63,29.24,29.18,5,3,8,0.00
2013-11-1,84,69,62,68,43,9,81,44,6,29.30,29.09,5,1,5,0.00
2013-11-2,78,59,47,47,35,32,65,44,22,29.56,29.30,2,0,4,0.00
2013-11-3,74,58,38,52,40,33,91,56,33,29.47,29.21,7,2,10,0.00
2013-11-4,65,63,62,63,58,52,93,83,67,29.27,29.15,8,2,11,0.04
2013-11-5,78,74,64,67,66,62,97,77,68,29.21,29.09,6,2,9,0.00
2013-11-6,73,61,59,67,52,46,84,73,60,29.44,29.12,4,1,7,0.00
2013-11-7,64,56,39,46,38,35,88,56,38,29.68,29.44,2,0,4,0.00
2013-11-8,63,61,60,39,38,38,45,43,40,29.62,29.44,3,0,4,0.00
2013-11-11,65,64,60,55,52,38,71,66,45,29.44,29.39,2,0,2,0.00
2013-11-12,64,60,47,54,48,28,71,65,47,29.86,29.39,2,1,4,0.00
2013-11-13,58,51,43,30,27,25,51,41,35,29.86,29.62,3,0,6,0.00
2013-11-14,66,56,31,44,37,25,84,51,33,29.65,29.24,7,2,11,0.00
2013-11-15,83,64,51,59,52,44,92,67,41,29.27,29.03,5,1,7,0.00
2013-11-16,78,71,62,69,64,56,90,79,64,29.12,28.94,5,2,6,0.00
2013-11-17,94,74,57,75,58,44,97,64,27,29.18,28.94,4,2,6,0.00
2013-11-18,80,64,52,56,50,45,83,62,43,29.36,29.18,3,0,4,0.00
2013-11-19,76,63,49,53,47,44,83,59,36,29.39,29.18,6,2,8,0.00
2013-11-20,74,65,59,65,59,51,96,79,68,29.21,29.06,6,3,10,0.00
2013-11-21,78,71,66,72,68,64,98,90,76,29.30,29.12,6,1,10,0.00
2013-11-22,68,40,34,65,38,33,98,95,86,29.65,29.27,5,2,10,0.95
2013-11-23,40,38,35,39,36,34,98,95,89,29.74,29.59,5,2,10,0.00
2013-11-24,40,37,34,39,33,30,95,85,75,29.74,29.53,5,1,10,0.25
2013-11-25,41,38,34,40,36,32,98,95,88,29.56,29.30,5,1,8,0.34
2013-11-26,53,42,36,39,33,25,90,72,47,29.59,29.36,6,2,12,0.00
2013-11-27,54,41,31,31,25,21,73,55,36,29.71,29.53,4,1,6,0.00
2013-11-28,58,41,30,36,29,23,87,65,40,29.62,29.47,4,1,7,0.00
2013-11-29,62,46,29,50,39,24,92,77,56,29.71,29.53,4,1,8,0.00
2013-11-30,66,56,46,56,50,42,95,80,69,29.56,29.36,4,1,7,0.00
2013-12-1,71,61,52,62,56,51,98,84,62,29.42,29.12,7,1,12,0.00
2013-12-2,85,62,45,62,46,28,97,63,16,29.15,28.88,8,1,12,0.00
2013-12-3,87,59,39,52,42,35,93,57,19,28.91,28.77,5,0,6,0.00
2013-12-4,84,61,48,63,52,39,93,74,48,29.00,28.85,6,1,7,0.00
2013-12-5,60,42,31,59,33,21,98,69,51,29.36,28.97,4,2,8,0.00
2013-12-6,34,32,28,32,26,18,93,78,67,29.68,29.33,5,2,8,0.04
2013-12-7,31,28,26,20,17,14,71,63,57,29.71,29.47,5,1,8,0.00
2013-12-8,49,36,28,38,30,20,90,78,61,29.47,29.18,5,1,6,0.00
2013-12-9,40,37,32,39,34,29,97,92,85,29.59,29.24,4,1,8,0.04
2013-12-10,50,35,26,29,23,20,86,64,40,29.74,29.50,5,1,6,0.00
2013-12-11,59,41,26,36,27,20,88,61,37,29.77,29.47,4,1,6,0.00
2013-12-12,57,42,29,36,29,22,79,60,44,29.80,29.47,6,1,7,0.00
2013-12-13,48,46,44,46,41,32,98,83,59,29.50,29.06,6,2,9,0.08
2013-12-14,54,43,33,46,35,25,98,75,47,29.56,29.03,5,1,10,0.00
2013-12-15,61,41,27,39,29,22,87,65,38,29.62,29.42,4,1,5,0.00
2013-12-16,72,45,27,43,30,22,93,61,26,29.50,29.36,5,1,9,0.00
2013-12-17,72,48,31,45,33,26,87,61,32,29.53,29.39,4,1,5,0.00
2013-12-18,73,51,32,54,40,27,89,70,44,29.50,29.24,7,1,10,0.00
2013-12-19,71,64,55,60,56,50,94,77,60,29.24,29.00,8,2,15,0.00
2013-12-20,73,67,57,66,62,45,95,85,65,29.06,28.85,6,2,10,0.00
2013-12-21,68,50,42,58,43,37,98,79,37,29.03,28.80,8,2,12,0.04
2013-12-22,56,44,32,40,33,25,93,68,42,29.59,29.03,6,1,8,0.04
2013-12-23,58,39,25,37,26,21,89,63,35,29.77,29.59,4,1,6,0.04
2013-12-24,64,43,25,39,28,21,94,60,33,29.74,29.44,7,2,11,0.00
2013-12-25,62,50,40,48,40,30,89,71,55,29.62,29.42,5,2,6,0.00
2013-12-26,58,44,32,44,34,28,92,71,47,29.68,29.50,4,1,5,0.00
2013-12-27,59,49,40,47,40,35,92,72,45,29.65,29.50,4,0,6,0.00
2013-12-28,67,51,38,47,42,35,94,73,45,29.50,29.18,5,1,6,0.00
2013-12-29,60,48,33,50,42,28,91,79,49,29.53,29.15,5,1,9,0.00
2013-12-30,50,39,30,29,24,19,80,57,41,29.59,29.47,4,1,5,0.00
2013-12-31,59,43,30,35,30,25,86,62,38,29.68,29.42,5,1,8,0.00
2014-1-1,72,52,33,50,41,27,88,68,45,29.44,29.12,12,2,19,0.00
2014-1-2,56,41,28,45,24,17,82,52,36,29.68,29.33,5,2,10,0.00